Regional Weather Roundup
Issued by NWS Glasgow, MT

Home | Current Version | Previous Version | Text Only | Print | Product List | Glossary On
Versions: 1 2 3 4 5 6 7 8 9 10 11 12 13 14 15 16 17 18 19 20 21 22 23 24 25 26 27 28
000
ASUS45 KGGW 051115
RWRGGW
HOURLY REGIONAL WEATHER ROUNDUP FOR NORTHEAST MONTANA
NATIONAL WEATHER SERVICE GLASGOW MONTANA
500 AM MDT THU MAY 05 2016

NOTE: "FAIR" INDICATES FEW OR NO CLOUDS BELOW 12,000 FEET WITH NO
SIGNIFICANT WEATHER AND/OR OBSTRUCTIONS TO VISISBILITY.

NORTHEAST MONTANA


CITY           SKY/WX    TMP DP  RH WIND       PRES   REMARKS
GLASGOW        CLEAR     53  40  61 E14       29.80F
PLENTYWOOD       N/A     54  39  57 SE3         N/A
WOLF POINT     CLEAR     46  41  82 CALM      29.84S
JORDAN           N/A     46  42  86 CALM      29.84S
WINNETT          N/A     44  38  79 NE1         N/A
SIDNEY         CLOUDY    50  41  71 S3        29.86S
GLENDIVE       CLEAR     48  41  76 CALM      29.91S
MALTA            N/A     49  45  86 SW1         N/A
SCOBEY           N/A     45  32  60 CALM      29.83
OPHEIM           N/A     59  34  38 CALM      29.57F

FORT PECK REPORTS


CITY           SKY/WX    TMP DP  RH WIND       PRES   REMARKS
FORT PECK        N/A     59  46  62 E9          N/A
THE PINES        N/A     57  45  64 SE5         N/A

SOUTHEAST MONTANA


CITY           SKY/WX    TMP DP  RH WIND       PRES   REMARKS
BILLINGS       CLOUDY    55  38  52 SW13      29.91S
MILES CITY     PTCLDY    55  43  63 S10       29.87S
BAKER          CLEAR     47  40  76 E7        29.93S
LIVINGSTON     CLOUDY    48  34  58 NW10      29.96S

CENTRAL MONTANA


CITY           SKY/WX    TMP DP  RH WIND       PRES   REMARKS
HAVRE          CLOUDY    45  41  86 W7        29.84R
LEWISTOWN      PTCLDY    52  34  50 S5        29.91S
GREAT FALLS    PTCLDY    45  39  79 SW6       29.87S
CUT BANK       CLOUDY    48  40  73 E5        29.88R
HELENA         CLOUDY    52  34  50 CALM      29.91R
BUTTE          CLOUDY    45  33  63 CALM      30.00R
BOZEMAN        CLOUDY    53  35  50 S7        29.96R

WESTERN MONTANA


CITY           SKY/WX    TMP DP  RH WIND       PRES   REMARKS
MISSOULA       PTCLDY    47  41  80 SW6       29.92S
KALISPELL      NOT AVBL

NORTH DAKOTA


CITY           SKY/WX    TMP DP  RH WIND       PRES   REMARKS
WILLISTON      CLEAR     48  41  76 SW5       29.86R
DICKINSON      CLEAR     50  41  71 S13       29.90S
MINOT          CLEAR     65  42  43 SW14      29.84S
BISMARCK       CLEAR     53  44  71 CALM      29.92F HAZE

SOUTHERN SASKATCHEWAN


CITY           SKY/WX    TMP DP  RH WIND       PRES   REMARKS
REGINA         PTCLDY    46  34  61 SE8       29.77S
MOOSE JAW      PTCLDY    63  39  42 SW14      29.76S
ESTEVAN        PTCLDY    52  43  71 SW10      29.82R
SWIFT CURRENT  MOCLDY    55  39  54 SW12      29.79R





USA.gov is the U.S. government's official web portal to all federal, state and local government web resources and services.